Clearwater, FL

11:04 PM EST on February 12, 2016 (GMT -0500)
Saint Petersburg-Clearwater International

Weather History for KPIE - December, 2013

Change the Weather History Date:

Sunday, December 29, 2013

  Actual Average Record
Temperature  
Mean Temperature 70 °F -  
Max Temperature 75 °F 71 °F 84 °F (2015)
Min Temperature 63 °F 55 °F 30 °F (2010)
Cooling Degree Days 4    
Growing Degree Days 20 (Base 50)    
Moisture  
Dew Point 68 °F    
Average Humidity 92    
Maximum Humidity 100    
Minimum Humidity 82    
Precipitation  
Precipitation 0.69 in - - ()
Sea Level Pressure  
Sea Level Pressure 29.96 in    
Wind  
Wind Speed 12 mph (SW)    
Max Wind Speed 20 mph    
Max Gust Speed 28 mph    
Visibility 8 miles    
Events Rain    
Averages and records for this station are not official NWS values.
T = Trace of Precipitation, MM = Missing Value Source: NWS Daily Summary

Daily Weather History Graph

Daily Weather History Graph

Search for Another Location

Airport or City:

Trip Planner

Search our weather history database for the weather conditions in past years. The results will help you decide how hot, cold, wet, or windy it might be!

Date:

Astronomy

Dec. 29, 2013 Rise Set
Actual Time 7:21 AM EST 5:44 PM EST
Civil Twilight 6:55 AM EST 6:10 PM EST
Nautical Twilight 6:26 AM EST 6:39 PM EST
Astronomical Twilight 5:57 AM EST 7:08 PM EST
Moon 4:10 AM EST (12/29) 3:16 PM EST (12/29)
Length of Visible Light 11h 15m
Length of Day
10h 23m
Waning Crescent, 11% of the Moon is Illuminated
Dec 29
Waning Crescent
Jan 1
New
Jan 7
First Quarter
Jan 15
Full
Jan 24
Last Quarter

Hourly Weather History & Observations

Time (EST) Temp. Dew Point Humidity Pressure Visibility Wind Dir Wind Speed Gust Speed Precip Events Conditions
12:53 AM 72.0 °F 68.0 °F 87% 29.99 in 10.0 mi SE 9.2 mph - N/A   Clear
1:53 AM 72.0 °F 69.1 °F 91% 29.95 in 10.0 mi SE 13.8 mph - N/A   Clear
2:53 AM 72.0 °F 69.1 °F 91% 29.92 in 10.0 mi SSE 19.6 mph 26.5 mph N/A   Clear
3:53 AM 72.0 °F 69.1 °F 91% 29.91 in 10.0 mi SSE 19.6 mph 27.6 mph N/A   Clear
4:53 AM 73.0 °F 70.0 °F 90% 29.92 in 10.0 mi SSE 13.8 mph - N/A   Partly Cloudy
5:37 AM 73.0 °F 70.0 °F 90% 29.94 in 10.0 mi SSE 15.0 mph - 0.00 in   Mostly Cloudy
5:53 AM 73.0 °F 70.0 °F 90% 29.95 in 10.0 mi SSE 12.7 mph - 0.00 in Rain Light Rain
6:53 AM 73.9 °F 71.1 °F 91% 29.92 in 10.0 mi South 13.8 mph - 0.00 in Rain Light Rain
7:28 AM 73.0 °F 70.0 °F 90% 29.95 in 10.0 mi SSW 12.7 mph - 0.00 in   Overcast
7:48 AM 73.4 °F 71.6 °F 94% 29.96 in 10.0 mi SSW 12.7 mph - 0.00 in   Overcast
7:53 AM 73.0 °F 70.0 °F 90% 29.96 in 10.0 mi South 18.4 mph 23.0 mph 0.00 in   Overcast
8:53 AM 73.9 °F 71.1 °F 91% 30.00 in 10.0 mi SSW 15.0 mph - N/A   Overcast
9:53 AM 73.0 °F 70.0 °F 90% 30.01 in 10.0 mi SW 6.9 mph - 0.00 in   Mostly Cloudy
10:08 AM 73.9 °F 70.0 °F 87% 30.01 in 10.0 mi SW 8.1 mph - N/A   Mostly Cloudy
10:21 AM 73.9 °F 70.0 °F 87% 30.01 in 10.0 mi WSW 5.8 mph - N/A   Overcast
10:36 AM 75.0 °F 69.1 °F 82% 30.01 in 10.0 mi WSW 5.8 mph - N/A   Overcast
10:53 AM 75.0 °F 70.0 °F 84% 30.00 in 10.0 mi SW 5.8 mph - N/A   Overcast
11:04 AM 75.0 °F 69.1 °F 82% 30.00 in 10.0 mi SW 6.9 mph - N/A   Overcast
11:53 AM 75.0 °F 71.1 °F 87% 29.98 in 10.0 mi SSW 10.4 mph - N/A   Overcast
12:38 PM 73.0 °F 70.0 °F 90% 29.95 in 3.0 mi SSW 11.5 mph - 0.04 in Rain Light Rain
12:40 PM 73.0 °F 70.0 °F 90% 29.95 in 1.8 mi SSW 8.1 mph - 0.08 in Rain Heavy Rain
12:53 PM 73.0 °F 71.1 °F 93% 29.93 in 3.0 mi South 9.2 mph - 0.10 in Rain Light Rain
1:11 PM 73.0 °F 71.1 °F 93% 29.93 in 2.0 mi South 10.4 mph - 0.02 in Rain Light Rain
1:50 PM 71.6 °F 71.6 °F 100% 29.90 in 4.0 mi South 8.1 mph - 0.07 in Rain Light Rain
1:53 PM 72.0 °F 71.1 °F 97% 29.91 in 4.0 mi South 12.7 mph - 0.08 in Rain Light Rain
2:00 PM 72.0 °F 71.1 °F 97% 29.90 in 1.8 mi South 12.7 mph - 0.06 in Rain Heavy Rain
2:10 PM 72.0 °F 71.1 °F 97% 29.91 in 0.8 mi SSW 13.8 mph - 0.25 in Rain Rain
2:15 PM 72.0 °F 71.1 °F 97% 29.91 in 2.0 mi SSW 15.0 mph - 0.26 in Rain Light Rain
2:50 PM 73.4 °F 71.6 °F 94% 29.90 in 7.0 mi SSW 10.4 mph - 0.36 in Rain Light Rain
2:53 PM 72.0 °F 71.1 °F 97% 29.90 in 5.0 mi SSW 12.7 mph - 0.36 in Rain Light Rain
3:05 PM 72.0 °F 71.1 °F 97% 29.91 in 5.0 mi Variable 3.5 mph - 0.02 in Rain Rain
3:27 PM 66.0 °F 64.0 °F 93% 29.92 in 5.0 mi NW 17.3 mph - 0.15 in Rain Light Rain
3:35 PM 64.9 °F 64.0 °F 97% 29.93 in 5.0 mi NNW 17.3 mph - 0.15 in Rain Light Rain
3:53 PM 64.0 °F 63.0 °F 96% 29.94 in 10.0 mi NNW 12.7 mph - 0.15 in   Overcast
4:00 PM 64.0 °F 63.0 °F 96% 29.94 in 10.0 mi NNW 15.0 mph - N/A   Overcast
4:53 PM 64.9 °F 62.1 °F 90% 29.96 in 10.0 mi NNW 13.8 mph - N/A   Overcast
5:25 PM 64.9 °F 62.1 °F 90% 29.96 in 10.0 mi NNW 6.9 mph - N/A   Overcast
5:53 PM 64.9 °F 61.0 °F 87% 29.97 in 10.0 mi NNW 5.8 mph - N/A   Overcast
6:53 PM 64.0 °F 61.0 °F 90% 29.99 in 10.0 mi WNW 6.9 mph - N/A   Overcast
7:53 PM 64.0 °F 61.0 °F 90% 30.00 in 10.0 mi NW 10.4 mph - N/A   Overcast
8:53 PM 64.0 °F 62.1 °F 93% 30.02 in 10.0 mi WNW 8.1 mph - N/A   Overcast
9:53 PM 64.0 °F 62.1 °F 93% 30.02 in 10.0 mi NW 11.5 mph - N/A   Clear
10:53 PM 64.0 °F 62.1 °F 93% 30.04 in 10.0 mi NW 9.2 mph - N/A   Partly Cloudy
11:53 PM 63.0 °F 61.0 °F 93% 30.03 in 10.0 mi NNW 10.4 mph - N/A   Clear